Wind_Speed
70 68 66 64 61 59 57 55 53 51 50 48 45 40 38 38 35 33 35 36 33 33 32 29 29 28 27 28 29 28 29 31 35 40 44 48 51 52 53 53 53 52 51 50 48 47 47 47 47 46 46 46 46 46 47 47 46 46 46 45 46 46 46 46 47 46 44 43 43 43 42 42 42 41 41 41 41 42 42 43 42 42 42 43 43 42 42
73 71 69 67 64 62 60 58 56 54 52 51 48 45 43 41 39 38 39 38 34 34 34 32 31 29 27 27 27 27 28 28 29 31 35 39 43 47 51 53 54 54 54 53 52 51 51 50 50 50 49 49 49 49 49 48 48 47 47 46 47 47 47 48 48 47 46 45 45 45 45 45 44 44 43 43 44 44 44 45 45 45 45 46 46 45 45
77 75 73 70 67 65 63 61 59 57 55 53 52 49 47 46 44 42 41 39 37 38 39 38 35 32 30 30 28 27 27 27 28 30 31 34 37 40 45 49 52 54 55 56 56 55 55 54 54 53 53 52 52 52 52 51 51 50 49 49 48 48 49 49 49 49 48 47 47 47 47 47 47 46 46 46 46 47 47 48 48 48 48 48 49 49 48
81 79 76 73 70 68 66 64 62 60 58 55 54 53 51 50 48 46 44 41 40 42 44 43 40 35 34 33 30 28 27 28 29 30 31 32 34 35 38 41 45 48 52 54 56 57 57 57 56 56 56 56 55 55 54 54 54 53 52 52 51 51 51 51 51 52 52 51 51 51 51 50 50 49 49 49 49 50 50 50 50 51 51 51 51 52 52
84 82 80 77 74 72 69 67 65 63 60 58 57 56 53 53 52 49 47 44 44 47 48 44 42 39 37 35 32 30 29 28 28 29 29 30 30 32 34 36 38 40 43 47 51 54 56 58 59 59 58 58 58 58 57 56 55 55 55 55 54 54 54 54 55 56 56 55 55 55 54 54 52 52 52 52 53 53 53 53 53 54 55 54 54 55 55
87 86 84 81 79 75 71 68 67 66 64 62 60 58 56 56 55 53 51 49 48 50 49 46 45 44 42 39 34 31 31 30 29 29 29 29 29 30 32 33 35 36 38 40 44 47 51 54 57 58 59 59 60 59 59 58 58 58 58 58 58 57 57 57 57 59 59 59 59 59 58 57 56 55 55 56 56 56 56 56 56 57 58 57 57 57 57
90 89 88 86 82 77 73 70 69 68 66 64 63 61 60 59 58 56 53 51 50 52 52 50 49 48 46 43 37 34 33 33 32 31 30 30 30 30 30 32 33 34 35 37 39 42 45 47 50 53 56 57 58 59 60 60 61 61 61 61 61 61 61 60 60 61 61 62 62 62 61 60 58 57 58 59 60 59 58 58 58 59 59 60 60 60 59
92 92 92 88 83 79 76 74 73 71 69 67 66 65 64 62 60 58 56 54 54 54 54 54 52 50 48 46 42 39 37 36 35 34 33 33 32 31 31 32 33 34 34 35 36 38 40 41 44 47 49 51 52 54 56 58 60 61 62 63 64 64 64 64 64 64 64 65 65 65 64 63 62 61 61 62 62 62 61 60 60 61 61 62 62 61 61
93 94 93 89 84 82 80 79 77 75 72 71 69 67 66 65 63 61 59 58 57 57 57 57 56 54 52 48 46 44 43 42 40 38 37 36 36 35 34 34 34 34 35 35 36 36 38 38 39 41 42 43 45 47 49 52 54 56 58 60 63 65 66 66 67 67 67 67 67 68 68 67 66 66 65 65 65 66 65 63 63 63 64 64 64 63 63
94 94 93 90 87 85 83 82 81 78 76 75 72 70 68 67 65 64 62 61 60 60 60 60 59 58 55 50 49 50 49 48 46 43 41 39 38 38 37 36 36 36 36 36 36 37 38 39 39 39 39 40 40 41 43 45 47 48 51 54 58 60 62 63 64 66 67 67 68 70 70 70 70 70 69 69 69 69 69 68 67 67 67 67 67 66 66
94 93 92 89 88 86 85 85 84 81 80 78 76 73 70 68 67 66 64 64 63 62 62 62 62 60 56 53 54 55 53 51 50 47 44 42 40 39 39 38 38 38 37 37 38 39 40 40 40 40 40 40 40 40 41 42 43 44 47 51 53 53 54 55 56 57 59 61 63 66 67 69 70 71 71 71 71 71 71 71 72 71 70 69 70 69 70
93 93 91 89 88 87 87 87 86 85 83 81 79 77 73 70 69 68 67 66 65 65 65 65 64 62 59 58 60 58 55 53 53 50 48 45 43 41 40 40 40 40 40 39 39 40 40 40 40 41 42 42 42 42 42 42 42 44 47 49 49 48 48 49 49 50 51 53 55 58 60 62 64 65 66 68 69 69 70 71 72 72 71 71 71 72 72
94 94 91 89 88 87 88 89 89 88 86 84 81 78 75 73 73 71 69 69 68 67 68 67 66 65 63 63 63 60 58 56 55 53 51 49 47 45 44 43 43 42 42 41 41 42 42 41 41 42 43 44 44 44 44 44 45 46 48 48 47 46 46 47 47 48 49 50 51 53 54 55 56 57 59 62 63 63 64 66 67 67 68 69 69 69 71
95 95 93 91 89 88 89 90 91 90 89 85 82 79 78 77 76 75 74 73 71 71 70 70 70 68 66 66 65 63 60 58 56 55 53 52 50 49 47 46 45 45 44 44 44 44 44 44 44 44 45 45 46 46 46 46 47 47 47 47 48 48 48 48 48 48 48 48 49 51 52 53 53 54 56 57 58 58 59 60 62 62 63 64 65 65 65
95 95 94 92 89 88 90 92 92 91 90 86 82 81 80 79 79 78 77 76 75 75 74 74 73 71 69 68 67 65 63 61 59 57 55 54 53 52 50 49 48 48 48 47 47 47 47 47 47 47 47 48 48 48 48 48 47 47 47 48 49 50 50 50 50 50 50 49 49 51 53 52 52 53 55 56 56 56 56 57 58 58 59 61 61 61 61
95 95 94 91 89 90 93 94 93 91 89 86 84 83 82 81 81 80 79 79 79 78 77 77 76 74 72 70 69 67 65 63 61 59 57 56 55 54 53 52 52 51 51 51 50 50 50 49 49 49 49 50 50 50 50 50 50 50 50 50 50 51 51 51 51 51 51 51 50 52 54 54 53 52 53 55 55 54 54 54 55 56 57 57 58 58 60
93 92 90 89 91 92 93 93 93 92 90 88 86 85 84 82 82 82 81 81 81 81 80 79 78 76 74 72 70 69 67 65 63 62 60 59 58 57 57 56 56 55 55 54 54 54 53 53 52 51 51 51 52 52 52 52 52 52 52 52 52 53 53 52 52 53 53 53 53 53 55 57 56 54 54 54 54 55 54 52 52 53 55 55 56 56 58
89 87 88 90 93 92 92 93 95 95 92 90 89 88 87 85 83 83 82 82 82 82 82 81 79 77 76 74 72 70 68 67 65 64 63 62 61 61 60 59 59 58 58 57 57 56 56 56 55 54 54 54 54 54 54 55 55 55 55 55 55 55 55 55 54 54 54 54 55 56 57 58 58 58 57 56 55 56 55 53 51 50 52 53 54 55 56
86 85 88 92 93 93 93 94 96 95 93 92 91 90 89 87 85 85 84 83 83 84 83 82 81 79 77 75 73 71 70 68 67 66 66 65 64 63 63 62 61 61 60 60 59 59 59 59 58 57 57 56 56 56 57 57 57 57 57 57 58 58 58 58 57 56 55 56 57 57 58 59 60 60 60 59 57 56 55 54 52 50 50 52 53 54 55
86 85 88 91 92 92 93 95 97 96 94 93 92 91 90 89 88 87 86 85 85 85 85 84 82 81 79 77 75 73 72 71 70 69 68 67 66 66 65 64 64 63 63 62 62 61 62 62 61 61 61 60 60 60 60 60 60 59 59 60 60 61 61 60 60 58 58 57 58 58 59 60 60 61 61 61 59 56 54 54 52 51 51 51 52 53 54
86 85 88 91 91 91 93 96 97 96 94 93 92 91 90 89 89 89 89 88 87 86 86 86 85 83 81 80 78 76 75 73 72 71 70 69 68 68 67 67 66 66 66 65 65 64 64 64 65 65 65 65 65 64 63 63 62 62 62 62 62 63 62 62 61 60 60 59 59 59 60 60 61 62 62 61 59 57 55 52 50 50 50 50 51 51 49
88 87 90 92 91 91 93 95 96 95 94 94 92 90 88 89 90 90 90 89 88 87 87 87 87 86 84 82 81 79 77 76 75 74 73 72 71 70 69 69 68 68 68 68 67 67 67 68 69 69 69 69 68 68 67 67 66 66 65 65 65 65 65 64 63 62 62 61 61 61 61 61 62 63 63 61 59 57 55 53 50 48 48 50 50 46 39
91 92 93 92 90 89 91 94 94 93 92 93 91 89 88 89 90 90 89 89 89 89 88 87 88 88 86 85 83 81 80 79 77 76 74 73 72 72 71 70 70 70 70 70 70 70 71 72 73 73 73 72 72 71 71 71 70 70 70 69 69 68 67 66 65 65 64 63 62 62 61 62 63 63 63 62 60 57 55 53 50 48 48 48 45 38 32
95 95 95 92 90 89 91 92 92 91 91 91 90 89 89 89 90 90 90 89 89 90 90 89 88 88 88 86 85 83 81 80 78 77 75 74 73 73 73 73 73 73 73 73 73 73 74 75 76 77 77 76 76 75 75 75 74 74 73 73 72 71 70 69 68 68 67 65 64 63 62 63 64 64 64 63 61 57 54 51 50 50 50 47 41 37 33
98 98 96 93 90 89 90 90 91 90 90 90 90 89 89 90 91 92 92 91 91 91 91 90 89 88 88 87 86 84 82 80 79 78 76 75 75 74 75 75 75 75 76 76 76 77 77 78 79 80 80 80 79 78 78 77 77 76 76 76 76 75 74 73 72 71 70 68 67 65 64 64 65 66 65 62 59 55 52 51 52 53 52 49 44 41 39
102 100 97 94 92 90 90 90 89 89 89 89 90 90 90 90 91 93 94 94 92 91 92 92 90 89 88 88 87 85 83 81 80 79 78 78 77 76 77 77 78 78 79 79 80 80 81 81 82 82 82 81 81 81 80 80 79 79 79 79 79 79 78 77 75 74 73 72 70 68 67 66 67 67 66 62 57 51 48 50 53 55 53 49 46 44 42
104 102 99 95 93 92 91 90 89 89 89 90 91 92 91 89 90 93 94 95 94 93 93 93 92 90 89 88 87 85 84 82 81 81 80 80 79 78 79 80 81 82 83 84 84 84 84 84 84 83 83 83 83 83 82 81 81 81 82 82 82 82 81 80 79 78 76 75 73 71 69 68 69 68 66 63 57 49 46 49 54 55 53 51 49 47 46
102 103 101 98 96 95 94 92 91 91 91 91 92 92 90 89 90 92 94 94 94 94 93 94 93 91 89 88 87 85 84 83 82 82 82 81 80 79 78 78 78 79 81 83 84 85 84 84 84 84 84 84 83 81 79 77 77 77 79 81 82 83 84 84 83 82 80 77 76 74 72 71 70 68 66 62 55 48 46 49 53 55 55 54 52 51 50
96 99 101 100 99 98 96 95 95 94 93 92 91 90 89 89 91 92 93 93 93 93 93 93 93 91 89 88 87 86 85 84 83 82 81 80 80 79 77 74 73 74 75 77 79 80 80 80 80 80 81 80 78 75 72 70 69 70 71 74 77 81 84 85 85 84 82 80 78 77 75 74 72 69 65 60 53 46 45 49 53 54 55 55 55 55 53
84 91 97 101 101 100 99 98 98 97 95 94 93 92 91 90 90 91 92 93 93 93 92 91 90 89 87 86 86 86 85 83 82 81 79 77 78 78 77 74 73 74 74 74 74 75 74 74 74 76 76 75 74 72 71 70 69 68 67 68 69 72 77 80 83 84 83 81 80 79 77 75 73 69 64 58 51 46 46 50 53 54 55 56 57 56 54
72 80 89 95 100 101 102 104 104 103 100 98 96 94 92 91 91 91 91 92 92 92 91 90 88 88 86 84 83 84 84 82 81 79 77 75 75 75 74 73 73 73 73 73 74 73 72 71 72 73 75 74 74 75 75 74 72 70 67 66 66 67 69 73 76 79 81 81 80 79 78 75 72 67 62 56 49 46 47 50 53 54 54 55 56 55 52
63 70 79 88 96 102 106 108 109 108 105 102 99 97 95 94 92 91 91 91 91 91 90 89 87 86 85 84 83 82 81 80 79 78 76 74 73 72 71 70 71 72 73 74 75 76 75 73 73 74 75 76 77 77 77 76 74 71 68 66 67 68 69 71 74 76 78 78 78 77 76 73 69 65 60 54 49 47 48 50 53 52 52 53 54 52 48
56 63 70 79 89 98 104 108 110 109 107 104 101 100 98 96 93 91 91 91 91 90 90 89 87 84 82 81 81 80 79 77 75 72 70 71 71 71 71 71 73 75 76 77 78 79 79 78 77 77 79 80 81 81 80 77 75 73 72 71 71 72 73 74 75 75 76 75 74 73 72 70 67 64 59 54 51 49 48 50 53 52 51 52 51 48 45
51 56 63 71 79 87 95 102 106 108 107 106 104 102 100 97 95 93 93 93 92 92 91 90 87 82 77 75 75 75 74 74 73 70 69 68 67 68 70 73 75 76 77 78 79 80 81 81 81 81 83 83 84 84 83 81 79 77 76 76 76 75 74 72 70 69 70 70 70 70 70 70 68 64 59 54 51 49 48 50 54 54 52 51 50 47 45
46 50 55 61 68 75 83 90 96 99 102 104 105 104 102 100 97 96 97 96 96 94 93 92 89 85 80 76 74 71 69 70 72 74 75 74 71 70 72 75 77 77 78 79 80 81 81 82 83 84 85 87 87 87 86 84 82 79 77 76 76 75 72 67 63 62 63 65 66 67 68 69 69 65 59 54 52 50 49 51 54 55 54 52 50 48 45
42 45 48 51 56 63 69 75 81 87 92 98 101 102 102 101 100 99 99 98 97 97 96 95 94 91 89 86 82 77 75 75 76 77 78 79 78 76 77 78 78 78 79 80 81 82 83 84 85 87 88 89 89 88 86 85 83 80 77 76 75 75 72 68 64 62 63 63 63 64 64 65 66 64 58 54 52 51 51 52 55 56 54 51 50 48 45
37 40 44 46 48 52 57 62 68 74 79 85 90 93 95 97 98 99 99 99 99 98 98 99 98 97 96 95 92 86 83 82 82 80 80 81 80 80 81 82 82 82 82 83 85 85 85 85 87 89 91 92 91 89 88 86 82 79 76 76 75 75 73 71 69 68 67 66 64 62 61 61 61 60 57 54 52 53 54 55 56 56 54 52 50 48 45
30 33 37 41 44 47 49 53 58 63 67 71 76 81 85 89 93 95 96 97 99 99 99 100 100 98 97 97 96 91 86 85 84 82 81 82 83 83 83 84 85 86 87 88 90 91 90 90 91 93 95 95 93 91 90 87 82 78 76 77 77 76 73 71 70 70 70 69 66 64 62 60 59 59 57 55 54 55 57 58 58 58 57 55 54 53 50
26 29 31 33 36 38 41 45 49 54 58 61 64 68 73 79 85 88 88 90 94 98 99 99 100 98 97 98 97 93 89 87 87 85 83 85 87 87 86 86 87 88 89 90 91 93 94 95 96 97 98 98 95 93 92 90 87 83 81 81 80 77 74 72 72 72 72 71 69 66 64 62 60 60 58 56 56 58 59 59 59 61 62 61 60 61 60
25 28 30 30 28 26 30 37 42 47 52 55 58 60 64 69 75 80 83 84 88 92 95 96 97 97 98 99 98 95 91 90 89 87 86 87 89 90 89 88 88 89 89 89 90 92 95 97 98 98 99 99 98 95 92 90 89 87 86 84 81 78 76 75 75 75 75 74 72 69 66 63 62 61 59 58 59 60 61 60 60 62 65 66 67 69 70
23 28 33 35 32 26 27 32 37 41 46 52 56 58 60 63 67 71 74 78 80 83 87 92 94 94 95 97 97 95 93 92 90 88 88 89 91 92 92 91 91 92 92 91 91 93 96 97 98 99 99 100 99 97 94 92 90 88 86 84 83 81 81 81 81 80 78 76 74 71 68 65 63 61 60 59 61 63 63 61 60 61 64 68 71 74 75
19 25 32 37 38 37 35 34 35 38 43 48 52 54 57 61 65 65 66 69 71 71 74 83 89 90 91 94 94 92 92 93 92 91 91 92 93 93 92 92 93 94 94 94 95 97 98 98 98 99 99 100 100 99 97 95 92 91 90 89 88 88 87 86 86 84 81 77 75 73 71 68 65 62 60 59 61 64 64 63 62 61 62 66 70 74 77
16 19 25 31 35 38 38 36 37 41 44 47 50 53 57 61 64 64 64 66 67 64 64 72 81 85 88 90 92 91 91 92 93 94 95 95 96 97 97 97 98 97 96 95 96 97 97 97 97 97 98 98 99 98 97 96 95 93 90 87 84 81 80 80 80 80 78 75 72 71 71 69 67 64 61 60 61 63 65 65 64 63 64 65 67 70 75
17 16 18 22 27 31 34 36 38 40 43 44 47 52 56 59 61 63 66 69 72 69 66 66 72 79 85 88 89 90 92 92 91 91 92 92 93 94 96 97 98 98 97 95 94 94 94 93 93 93 94 94 94 94 94 92 88 81 74 70 68 68 69 70 71 71 71 70 68 68 68 68 66 64 62 61 60 63 66 67 67 66 66 66 67 70 74
19 15 14 16 19 23 29 34 36 37 38 40 43 48 53 57 61 66 71 75 78 76 72 68 70 76 82 83 84 86 89 91 91 90 90 90 91 93 94 96 97 97 96 94 93 93 91 89 87 87 89 89 89 87 84 78 70 65 62 61 62 62 63 64 65 64 64 64 64 65 65 65 64 62 61 61 61 63 65 67 69 70 69 68 68 70 73
20 16 14 17 19 20 24 29 35 37 38 39 42 46 51 57 64 70 77 82 84 82 78 76 76 79 81 80 77 76 80 86 90 92 91 91 91 92 95 98 99 98 97 95 94 92 89 86 84 85 87 88 86 80 73 66 61 60 60 60 61 61 61 62 62 62 62 62 62 62 63 63 62 61 61 61 62 63 65 67 69 71 72 72 72 72 73
21 18 17 20 22 22 20 23 30 36 40 41 43 46 51 57 64 70 75 81 85 86 85 84 82 80 79 78 75 72 74 80 86 89 91 93 93 94 96 98 100 99 97 95 94 92 91 89 88 87 87 84 79 73 68 64 61 61 61 61 61 62 63 63 63 63 63 63 63 63 63 62 62 61 61 61 62 63 65 66 68 70 71 73 75 76 77
19 18 18 19 22 21 20 19 22 29 36 41 45 47 50 56 63 68 71 74 79 82 84 86 84 81 79 79 77 76 77 80 81 82 84 88 90 90 90 91 93 95 96 95 93 92 91 91 89 85 80 75 71 68 67 66 64 63 62 62 62 62 62 62 63 64 65 65 64 64 64 63 63 62 62 62 62 63 64 66 68 70 72 73 75 77 79
18 18 18 18 18 19 20 19 19 21 26 33 40 45 50 55 61 67 70 72 74 76 78 80 82 83 83 80 76 75 75 75 73 73 74 76 77 78 77 76 77 82 88 92 92 90 87 85 84 80 76 72 70 68 68 68 67 66 65 65 64 64 63 62 62 63 65 66 66 66 66 65 64 64 64 63 64 64 65 66 68 70 72 74 75 77 79
21 20 20 20 20 19 20 20 20 20 21 24 29 35 42 49 56 63 69 72 73 74 75 78 80 81 80 75 69 66 65 65 66 68 71 73 75 78 78 76 74 75 79 84 88 86 83 80 78 77 75 74 72 70 69 69 69 68 68 68 68 67 66 64 63 62 64 66 67 68 67 67 66 66 66 66 66 66 67 68 69 70 71 73 74 76 77
24 24 24 24 24 24 23 23 23 22 22 23 24 27 31 38 46 54 62 68 71 71 71 73 73 73 71 69 66 65 66 69 71 72 72 73 76 79 80 79 78 77 77 80 83 83 81 78 75 75 75 75 74 72 72 72 71 71 71 71 70 70 69 67 65 64 64 65 67 68 69 69 69 68 68 68 68 68 69 69 70 71 71 72 73 74 75
30 29 29 29 29 29 29 28 27 26 26 26 26 27 28 31 36 41 49 57 64 68 70 72 72 71 69 68 68 68 70 73 74 74 71 69 69 71 72 72 72 72 72 73 75 75 74 72 72 73 75 76 76 75 74 74 74 73 73 73 72 71 70 69 67 67 66 67 68 69 70 71 71 71 71 71 71 71 71 72 73 73 73 73 73 73 74
Wind_Direction
223 223 222 219 216 215 213 212 212 212 209 208 204 199 200 202 197 192 198 209 223 232 226 214 212 214 214 215 217 219 220 221 224 227 229 231 232 232 234 235 235 235 234 234 235 235 236 237 237 237 238 239 241 243 244 245 246 247 247 249 251 253 254 255 257 259 261 262 263 265 265 266 268 269 271 272 273 274 275 276 276 277 278 280 282 284 286
222 222 222 220 217 215 213 211 212 213 211 210 208 204 204 204 201 202 208 214 221 233 236 230 220 215 213 212 212 212 213 213 216 220 224 228 231 233 234 235 236 237 237 237 237 237 238 238 239 239 239 239 241 242 244 246 247 247 248 249 251 253 254 256 258 260 261 262 263 264 265 266 268 269 270 271 272 274 274 275 276 277 279 280 282 284 285
221 222 222 221 218 215 213 212 212 213 213 212 211 209 206 205 204 208 214 217 220 227 235 238 233 220 208 206 209 211 211 209 210 214 219 224 228 232 235 236 238 239 240 240 240 240 240 240 240 240 241 241 241 242 244 246 247 248 249 250 251 253 255 257 259 261 262 262 262 263 264 265 266 267 269 270 271 272 273 275 276 278 279 280 282 284 286
220 221 221 221 219 217 214 212 212 212 213 213 212 212 209 207 206 209 214 217 219 222 227 234 238 229 210 204 209 212 211 210 210 213 217 222 227 230 234 236 238 239 241 242 243 243 243 243 243 243 243 243 243 243 244 245 247 249 251 252 253 255 257 259 261 262 261 261 262 262 263 264 265 267 268 270 271 272 273 275 277 278 279 281 283 284 286
219 220 221 221 220 218 215 214 213 212 212 213 213 213 211 210 209 209 213 216 218 223 226 231 238 236 223 214 212 211 211 214 215 216 218 221 225 229 232 235 237 238 240 242 243 245 246 246 246 246 246 247 247 247 246 247 249 250 252 253 254 255 257 258 260 261 262 262 262 263 264 265 266 268 269 270 271 272 274 275 277 278 279 280 282 283 285
219 220 220 220 221 219 217 215 215 214 213 213 213 213 213 212 210 210 212 215 219 225 230 232 236 240 237 231 222 213 213 216 217 219 222 222 223 226 230 234 236 238 239 241 243 245 246 247 248 249 249 250 251 251 252 251 252 252 253 254 254 255 256 257 258 260 262 263 263 263 264 266 267 268 269 271 271 272 273 274 276 277 278 280 281 281 283
219 220 220 219 219 219 218 218 218 216 214 213 213 214 214 213 212 211 213 216 220 226 231 233 235 239 241 240 235 227 220 218 219 223 227 227 228 228 230 233 237 239 241 243 244 246 247 248 249 250 250 251 252 253 254 255 255 255 256 256 257 257 258 258 259 260 261 263 264 264 265 266 267 268 269 270 271 272 272 274 275 276 278 279 280 281 283
219 220 220 219 218 219 219 219 219 218 216 215 214 215 216 216 214 214 215 217 222 227 231 234 235 237 239 240 241 238 233 228 227 229 232 234 235 234 235 236 238 240 242 245 248 250 251 251 252 252 252 252 252 253 254 255 256 256 257 258 259 259 259 260 260 261 262 263 265 266 267 267 267 267 268 269 271 272 273 273 274 276 277 278 280 281 283
219 220 220 219 217 218 219 220 220 220 218 217 215 215 217 217 216 216 217 219 222 226 230 233 235 235 236 236 239 241 240 238 237 237 238 239 240 240 240 240 241 243 244 247 250 253 255 256 256 256 256 255 254 254 255 255 256 256 257 258 259 259 260 260 261 262 262 264 265 267 268 268 269 269 269 270 271 272 273 274 275 276 277 278 279 280 281
220 220 220 219 217 217 218 220 221 221 220 219 217 216 217 218 218 218 219 221 223 226 229 232 234 235 234 235 237 239 240 241 242 241 241 241 242 243 244 244 244 245 246 248 251 254 256 258 260 261 261 260 258 257 258 258 258 259 259 259 259 259 260 261 262 263 264 265 266 267 268 269 269 270 270 271 272 273 274 275 275 274 275 276 278 279 280
221 221 220 219 218 217 218 221 222 222 222 221 219 218 218 219 220 220 221 222 224 226 229 232 234 235 234 235 237 238 239 241 243 244 244 243 243 244 245 246 246 247 249 251 253 254 256 259 261 263 264 265 264 263 262 262 262 262 261 261 261 261 262 264 265 266 267 268 268 268 269 269 269 270 271 271 272 273 273 274 274 275 275 276 277 277 278
222 222 221 220 219 218 219 221 222 222 222 222 221 220 219 220 222 221 221 223 225 226 229 231 233 234 234 235 236 238 239 241 243 245 246 245 245 245 246 247 248 249 251 253 255 256 256 258 260 262 264 265 266 266 266 266 266 264 264 264 265 266 267 268 268 267 268 268 269 270 270 271 271 272 273 273 273 273 274 274 275 276 276 277 277 277 278
222 223 222 220 219 219 219 221 222 223 223 223 223 222 221 222 223 223 223 224 226 227 229 231 232 233 234 235 236 237 238 240 242 245 246 247 246 246 246 247 248 250 251 253 255 255 256 257 258 260 261 263 264 265 267 268 267 267 269 270 272 272 271 270 270 269 269 270 271 271 272 273 274 275 276 276 276 277 277 278 278 278 278 278 278 278 279
221 222 222 221 219 219 220 221 222 223 223 223 223 223 223 224 225 225 225 226 227 228 229 231 232 233 234 235 237 237 238 239 241 244 246 248 248 248 247 247 248 249 250 252 252 253 254 256 257 258 259 261 262 264 265 266 268 269 271 272 273 273 273 273 272 272 272 272 273 274 275 275 276 278 278 279 280 280 281 281 282 282 282 282 282 282 282
221 221 221 220 219 219 220 222 222 223 223 223 223 224 225 225 226 226 226 227 228 229 230 231 232 233 234 235 237 238 239 240 241 243 244 247 249 249 249 249 249 250 251 252 252 252 253 254 256 257 258 259 260 262 263 264 266 268 268 269 270 272 273 274 274 275 275 275 276 277 277 277 277 279 280 280 280 281 282 282 283 283 283 283 284 284 284
221 220 219 219 219 219 220 223 223 223 223 223 223 224 225 226 227 228 228 228 229 230 231 232 233 233 234 235 237 238 239 240 241 242 243 245 247 249 250 250 251 252 253 254 254 253 253 253 254 255 257 258 259 260 261 262 264 265 266 268 270 271 272 273 274 275 275 276 277 278 278 279 279 279 280 280 281 281 281 282 283 283 283 283 283 284 283
221 220 219 219 219 219 220 222 224 224 223 223 223 224 225 225 227 229 230 230 231 231 232 233 234 234 235 236 237 238 239 240 241 243 243 245 246 248 250 251 252 254 254 255 256 256 255 254 254 254 256 257 258 260 261 262 263 264 265 267 268 270 271 272 273 273 274 275 275 276 277 279 280 280 280 281 283 283 283 283 283 283 283 283 283 282 282
222 220 219 219 219 219 219 222 224 224 223 223 223 224 224 225 226 229 231 232 232 233 233 233 234 235 236 236 237 238 239 240 241 243 244 246 247 248 250 251 252 254 255 256 256 257 257 256 256 255 255 256 257 259 260 261 262 263 264 265 266 268 269 271 272 272 273 274 274 274 274 276 278 280 281 282 284 285 286 286 284 283 283 283 283 282 281
222 220 220 220 219 218 218 220 223 224 223 223 223 223 224 224 225 227 230 233 234 235 235 234 234 235 236 237 237 238 239 240 241 243 244 246 248 249 250 251 252 253 254 255 256 257 257 258 258 257 257 257 257 258 258 260 261 262 262 263 264 266 267 268 270 271 272 272 272 273 273 274 275 278 280 282 283 285 286 287 286 284 283 282 283 283 282
222 221 221 221 220 219 219 220 222 223 223 223 223 224 224 225 225 227 229 231 234 236 237 236 235 235 236 237 237 238 239 240 241 243 244 246 247 249 250 251 252 253 253 254 255 256 257 258 258 258 258 258 257 257 258 259 260 261 262 262 262 264 265 266 268 269 271 271 272 272 273 274 275 277 278 280 282 283 284 285 285 284 283 282 282 282 281
222 221 222 222 221 220 220 221 222 222 223 223 223 223 224 225 226 227 228 230 233 235 237 238 237 236 236 237 238 238 239 240 242 243 244 245 246 248 249 251 252 253 253 253 254 254 255 257 257 258 258 258 258 258 259 259 260 261 262 262 263 263 264 265 266 268 269 271 272 273 273 274 275 276 277 279 281 283 284 285 284 282 282 282 281 280 278
222 222 223 222 221 220 220 221 222 222 222 223 223 223 224 226 227 227 228 230 232 234 237 239 239 238 237 238 238 239 239 240 242 243 244 245 246 247 249 250 251 252 252 253 254 254 255 256 256 256 257 257 258 259 260 261 261 262 262 262 263 263 264 265 266 267 269 270 272 273 274 274 275 276 277 278 280 282 284 285 284 280 278 278 278 276 273
221 222 223 222 221 220 220 222 222 222 223 224 224 224 225 227 228 228 229 230 232 234 235 238 240 240 240 239 239 239 240 241 242 243 244 245 246 247 248 249 251 252 252 253 254 254 255 256 256 257 257 258 259 259 260 261 262 262 263 263 263 264 264 265 266 267 268 270 271 272 273 274 275 276 277 279 280 281 283 284 282 278 276 275 272 268 266
219 221 222 221 220 220 221 222 222 223 223 224 225 224 225 228 230 230 230 230 232 234 235 236 238 240 241 241 241 241 241 242 243 244 245 246 247 248 249 249 250 252 253 254 255 255 255 256 257 257 258 258 259 260 261 261 262 263 263 264 264 265 265 265 266 267 267 268 269 271 272 273 274 275 276 277 279 280 281 281 277 274 272 269 264 260 260
218 219 220 220 219 220 220 221 221 222 222 224 225 225 226 228 230 232 232 232 232 233 235 236 237 239 241 242 242 242 243 243 244 245 246 247 248 249 251 252 252 253 254 255 256 256 256 256 257 258 258 259 260 261 262 263 263 263 264 264 264 265 265 265 265 265 266 267 268 269 270 270 271 272 273 275 276 277 277 276 273 269 267 262 258 256 258
217 218 218 219 219 219 220 221 221 221 221 222 224 225 225 226 229 232 233 233 233 233 235 236 237 238 240 241 243 243 244 245 245 246 247 248 249 250 251 252 253 254 255 255 256 256 257 257 258 259 260 261 262 262 262 263 264 264 264 264 264 264 264 265 265 264 265 266 266 267 268 268 269 271 272 274 275 274 273 271 268 266 262 257 253 253 255
218 217 217 217 218 219 220 220 220 221 221 221 222 224 224 225 228 231 233 234 234 234 235 236 237 238 239 241 243 244 245 246 247 247 248 249 250 251 252 253 254 255 256 256 256 257 257 258 259 260 260 261 262 263 264 264 265 265 265 264 263 262 263 263 264 264 264 264 265 265 266 266 268 269 271 273 274 273 270 267 264 262 258 253 249 250 252
218 218 217 216 217 218 219 220 220 221 220 220 221 223 223 223 226 229 231 233 234 234 235 236 237 237 239 240 242 243 245 246 247 248 249 249 251 252 253 254 255 255 255 256 257 257 258 258 258 258 258 259 261 262 264 266 267 267 265 264 262 261 261 262 263 263 264 264 264 265 265 265 266 268 270 272 272 271 268 264 260 258 255 251 249 249 250
219 218 217 216 217 217 218 219 220 220 220 220 220 221 221 222 224 226 229 231 233 234 235 236 237 237 238 239 240 242 243 244 245 246 247 248 249 250 251 253 254 254 254 254 254 255 255 256 255 255 256 257 258 259 262 264 265 266 266 265 263 261 260 260 261 262 263 264 265 265 265 265 265 267 270 271 271 270 266 260 257 255 253 250 250 249 252
218 218 217 217 217 217 217 219 220 220 220 220 220 220 221 221 223 225 228 230 232 233 234 235 236 237 238 239 240 241 242 243 244 245 246 247 247 248 249 250 252 253 252 252 251 251 252 253 253 253 254 255 255 257 259 261 264 266 267 267 266 265 263 262 261 261 262 263 264 265 265 264 265 266 268 269 270 269 264 258 254 252 249 247 250 252 258
216 215 216 216 216 217 217 219 220 220 219 219 219 219 220 221 222 224 227 229 231 233 234 235 236 237 238 239 240 241 242 243 244 245 245 246 247 247 247 248 249 250 251 251 250 250 250 250 250 251 253 253 254 255 258 260 262 264 266 268 269 270 269 268 265 264 263 263 264 264 263 263 264 265 267 268 268 267 262 256 252 250 247 246 250 256 265
213 213 213 213 214 216 217 218 219 219 219 218 218 218 219 220 221 223 226 228 230 233 234 235 236 237 238 238 239 240 242 243 244 245 246 246 246 247 247 248 248 249 249 250 251 250 251 251 251 252 253 254 255 256 258 260 261 262 265 268 270 272 274 273 271 268 265 264 265 264 263 263 263 264 266 268 266 264 260 253 249 250 248 247 252 258 263
208 210 210 211 213 214 216 218 219 219 219 218 218 218 218 219 220 222 225 228 230 232 234 235 236 237 238 239 239 239 240 241 241 242 244 245 246 247 247 247 247 248 249 251 252 253 253 253 253 253 255 256 258 259 260 260 260 262 264 268 270 272 275 276 274 270 266 264 265 265 264 264 264 264 266 266 264 263 260 251 246 248 249 250 254 256 254
204 206 208 210 212 214 215 218 219 219 219 219 219 219 219 219 220 222 224 227 229 231 233 235 236 236 236 237 237 237 238 239 238 237 237 238 240 242 243 244 245 246 247 249 252 253 254 254 254 255 256 258 259 261 263 263 263 263 265 267 269 272 275 276 274 269 265 264 265 266 266 266 265 264 265 264 261 260 257 249 245 245 247 249 253 252 245
201 203 205 208 210 212 214 217 219 220 220 220 219 219 219 219 220 222 224 226 228 230 232 233 235 234 233 232 232 232 233 234 235 236 236 236 236 237 239 241 243 245 246 248 251 253 254 255 255 256 257 259 261 263 264 265 265 264 265 266 268 271 273 273 271 268 266 265 267 267 267 265 264 263 262 260 258 257 253 247 243 243 243 246 251 248 240
199 199 201 203 207 211 213 216 218 220 221 221 221 220 219 219 219 221 224 226 228 230 232 233 233 234 234 233 233 233 233 233 235 236 238 239 240 239 240 241 244 245 247 248 250 252 253 254 256 257 259 260 262 264 265 266 266 266 266 266 268 270 270 269 269 269 268 267 268 268 267 265 262 260 258 255 254 253 249 244 243 243 242 242 246 244 235
196 197 197 197 200 205 209 213 215 218 220 221 222 221 220 220 221 222 224 226 228 230 232 233 234 234 235 236 236 236 235 235 235 235 236 238 241 242 243 244 246 247 247 248 249 250 251 252 254 257 259 261 263 265 266 267 267 267 267 268 269 269 268 267 269 270 270 269 268 268 267 265 262 259 255 252 250 248 244 240 241 242 240 238 236 234 228
187 191 194 195 196 198 202 207 212 215 217 219 220 220 220 220 221 222 224 226 228 229 231 233 234 235 236 237 238 237 236 234 234 234 235 236 239 241 243 244 246 247 247 248 249 250 251 252 253 256 259 261 263 264 266 267 267 267 268 269 270 269 267 267 269 270 270 270 269 267 265 264 261 258 255 251 249 245 240 237 238 239 237 234 230 226 220
172 177 181 184 186 190 195 200 206 211 213 214 216 216 216 218 219 220 221 223 226 228 230 232 234 234 235 236 237 237 235 232 233 235 236 236 237 239 242 243 245 245 246 247 249 251 252 253 254 256 259 261 263 264 265 266 267 268 269 269 269 267 266 267 269 268 268 269 269 266 264 262 260 258 255 252 248 244 239 236 236 236 235 232 228 226 224
158 163 162 160 161 173 187 194 198 205 210 211 211 210 210 212 215 216 217 220 223 225 228 231 233 234 234 235 236 237 235 233 234 237 238 237 237 238 241 243 244 245 247 248 251 253 254 255 256 257 258 260 262 264 264 265 266 268 268 269 268 266 265 266 268 268 267 268 267 265 263 262 259 257 255 252 247 243 240 238 236 236 236 234 230 228 229
149 155 155 151 152 166 185 189 188 195 203 208 209 209 208 209 212 213 214 217 220 223 226 229 231 233 234 236 237 237 237 236 235 236 237 237 237 238 240 242 244 246 247 249 251 253 255 256 257 257 258 259 261 263 264 264 265 265 266 266 266 266 266 267 268 267 267 268 266 263 261 262 261 257 254 252 247 242 240 239 238 237 237 237 235 232 231
149 159 162 160 163 175 185 184 181 187 197 202 204 206 207 209 211 212 212 213 216 219 224 228 229 230 232 235 236 236 235 235 235 234 234 235 236 237 239 241 244 246 247 249 251 253 255 256 257 257 258 259 261 262 264 264 264 265 265 266 266 266 266 266 267 266 266 267 266 261 259 261 262 258 254 251 246 242 240 239 240 239 238 239 239 238 236
138 156 168 173 178 185 188 186 185 190 196 199 200 202 205 206 208 209 209 208 209 213 221 228 230 229 229 232 235 235 233 233 235 235 235 235 237 238 239 241 244 246 247 248 250 252 254 256 257 258 259 260 261 262 263 265 266 268 268 267 266 264 263 263 264 264 264 265 263 259 258 260 261 259 255 251 246 244 242 240 240 241 241 240 240 241 241
129 138 162 180 190 193 193 193 196 201 203 201 201 202 203 205 206 206 205 204 207 211 217 224 228 229 229 230 232 234 233 232 233 234 235 235 236 238 239 240 242 244 245 247 249 251 253 256 258 260 261 261 262 263 265 267 268 267 265 262 260 259 259 260 262 262 262 261 258 256 257 259 260 259 257 253 248 246 244 242 241 241 243 242 241 242 242
137 143 158 175 188 196 198 201 205 210 211 209 206 204 203 203 204 204 203 204 209 213 215 217 222 227 228 228 231 235 235 233 232 232 233 234 235 236 237 239 241 242 243 245 248 251 254 256 259 261 262 263 264 265 266 265 263 259 257 256 257 257 258 258 259 258 258 258 257 257 257 258 258 258 257 255 251 249 247 245 243 242 243 243 243 243 243
152 161 167 175 187 200 204 206 210 215 215 212 209 208 205 204 203 204 205 208 211 213 215 216 220 224 226 228 231 236 238 237 235 233 233 234 236 236 237 239 241 241 242 244 248 251 254 256 258 260 262 263 264 263 259 255 254 254 254 254 254 255 255 256 257 257 257 258 259 259 259 259 259 259 257 255 253 251 250 248 247 245 244 244 244 244 244
171 176 179 183 193 203 208 208 213 218 220 217 214 212 209 206 206 207 210 212 214 215 218 220 223 225 227 229 231 234 237 238 238 236 234 234 236 238 240 241 242 243 243 245 248 251 252 254 256 259 261 261 259 254 249 248 250 251 252 253 254 255 256 257 257 257 257 258 259 260 261 261 261 261 259 258 256 254 252 250 250 249 248 247 246 245 244
188 193 194 193 198 205 211 210 212 218 222 223 222 220 215 211 209 210 212 214 216 218 221 223 224 225 226 228 229 231 234 237 239 239 238 238 238 240 242 244 245 245 244 245 247 250 252 253 255 257 257 254 249 246 246 247 248 249 251 253 254 256 257 258 259 259 258 258 259 260 261 262 263 262 261 260 259 258 256 254 252 252 251 251 250 249 247
205 210 213 213 213 214 216 216 214 216 220 224 226 226 224 219 215 213 214 216 218 219 221 223 223 224 225 226 228 231 235 238 241 243 244 243 241 240 242 246 248 247 245 244 245 248 251 252 253 253 250 247 245 245 247 247 247 248 250 251 253 254 256 258 259 258 258 258 258 259 260 261 262 262 261 261 260 260 259 258 257 256 255 254 254 253 252
214 218 223 228 230 230 228 226 224 222 220 222 225 229 230 228 224 220 219 219 221 222 223 224 225 226 228 230 231 233 237 240 243 244 245 246 245 245 246 248 248 246 244 243 243 246 250 252 252 249 246 244 244 246 246 247 248 249 250 251 253 254 255 256 257 258 258 257 257 258 258 259 259 259 259 259 259 259 259 259 259 259 258 258 257 256 256
218 220 223 227 231 234 237 238 238 236 232 228 227 227 229 230 229 228 227 227 228 228 229 229 230 230 232 232 233 235 238 241 242 244 246 247 248 249 250 250 249 247 245 245 245 247 250 252 252 248 245 244 245 246 247 248 249 251 252 254 255 255 255 256 257 258 258 257 257 257 258 258 258 258 258 258 257 257 257 257 257 258 258 258 258 257 257
217 220 222 224 226 229 231 234 237 240 241 240 238 235 231 229 229 230 231 231 232 233 235 235 235 234 233 232 231 233 236 239 242 245 248 248 248 248 249 250 249 248 247 247 248 249 251 252 252 251 249 247 248 248 248 249 250 252 253 255 256 256 256 256 256 256 256 256 256 256 257 257 258 258 257 257 257 257 256 256 256 256 257 257 257 257 257
Height
10755 10761 10766 10773 10781 10787 10793 10799 10804 10809 10814 10819 10825 10831 10835 10837 10841 10842 10838 10837 10839 10841 10844 10849 10852 10854 10856 10858 10861 10864 10865 10867 10870 10872 10875 10878 10880 10883 10886 10888 10891 10894 10897 10900 10903 10906 10907 10909 10911 10913 10915 10916 10917 10918 10919 10921 10923 10924 10926 10927 10927 10928 10929 10930 10929 10931 10935 10937 10937 10938 10938 10939 10940 10941 10942 10942 10942 10942 10942 10942 10942 10942 10941 10940 10940 10940 10940
10747 10752 10757 10765 10773 10779 10786 10792 10797 10803 10808 10813 10819 10825 10829 10832 10836 10836 10833 10835 10838 10838 10839 10842 10845 10849 10853 10856 10858 10860 10861 10864 10866 10868 10870 10872 10875 10878 10880 10883 10886 10888 10891 10894 10897 10899 10901 10903 10905 10907 10909 10910 10912 10913 10914 10916 10917 10919 10921 10923 10923 10923 10924 10924 10924 10927 10930 10931 10932 10932 10933 10933 10934 10935 10936 10937 10937 10937 10937 10937 10936 10936 10936 10935 10934 10935 10935
10737 10743 10749 10756 10764 10771 10778 10785 10791 10796 10801 10807 10813 10819 10822 10826 10830 10830 10830 10833 10836 10833 10832 10834 10837 10843 10848 10852 10854 10856 10858 10861 10863 10865 10867 10869 10871 10873 10876 10878 10881 10883 10886 10888 10890 10892 10894 10896 10898 10901 10902 10904 10906 10908 10909 10910 10911 10913 10916 10918 10919 10919 10919 10919 10921 10922 10924 10925 10926 10926 10926 10927 10928 10929 10931 10931 10932 10932 10932 10931 10931 10931 10931 10930 10929 10929 10930
10728 10733 10740 10748 10756 10763 10770 10777 10783 10789 10795 10801 10806 10810 10815 10819 10822 10824 10825 10830 10831 10827 10825 10828 10831 10837 10842 10847 10851 10854 10856 10858 10860 10862 10864 10866 10868 10870 10872 10874 10876 10878 10880 10882 10884 10886 10888 10890 10893 10894 10896 10898 10900 10902 10904 10905 10907 10909 10912 10912 10914 10915 10915 10916 10916 10916 10917 10918 10919 10919 10920 10921 10923 10924 10925 10926 10926 10926 10926 10927 10927 10926 10925 10925 10925 10924 10924
10718 10724 10731 10739 10746 10753 10762 10769 10776 10782 10788 10793 10797 10802 10808 10811 10815 10818 10821 10824 10825 10821 10821 10825 10829 10832 10837 10842 10847 10851 10853 10855 10857 10858 10860 10862 10864 10866 10868 10869 10871 10873 10875 10877 10878 10880 10881 10884 10886 10888 10890 10893 10894 10896 10899 10901 10904 10906 10906 10907 10908 10909 10910 10911 10910 10909 10909 10911 10912 10913 10914 10916 10918 10920 10920 10920 10920 10921 10921 10922 10922 10921 10920 10921 10921 10919 10918
10708 10714 10722 10729 10735 10744 10755 10763 10769 10774 10780 10786 10791 10796 10800 10803 10807 10812 10814 10818 10820 10818 10819 10824 10827 10828 10831 10836 10842 10848 10850 10852 10853 10855 10857 10859 10860 10862 10863 10864 10866 10868 10870 10871 10873 10874 10876 10878 10880 10883 10885 10887 10888 10891 10893 10895 10898 10899 10899 10900 10901 10902 10903 10904 10904 10903 10903 10904 10904 10906 10908 10910 10913 10914 10915 10914 10914 10915 10916 10917 10917 10915 10914 10915 10915 10914 10913
10698 10704 10709 10717 10726 10739 10750 10756 10761 10766 10773 10779 10784 10788 10790 10794 10800 10805 10810 10814 10816 10815 10816 10819 10822 10824 10827 10832 10838 10843 10846 10848 10850 10852 10853 10855 10857 10858 10859 10860 10861 10863 10865 10866 10868 10869 10871 10873 10875 10877 10879 10881 10884 10885 10886 10888 10889 10890 10892 10893 10893 10894 10895 10896 10897 10897 10896 10896 10897 10899 10901 10904 10907 10909 10908 10907 10906 10908 10910 10911 10910 10909 10909 10908 10908 10908 10908
10687 10692 10697 10709 10724 10735 10742 10747 10752 10757 10765 10771 10776 10780 10783 10788 10795 10801 10806 10809 10810 10810 10811 10813 10817 10820 10824 10828 10832 10837 10840 10843 10846 10848 10849 10851 10853 10854 10856 10856 10857 10859 10860 10861 10862 10863 10865 10868 10869 10871 10873 10876 10878 10879 10880 10881 10882 10883 10885 10885 10886 10886 10887 10888 10889 10890 10890 10890 10891 10892 10894 10897 10900 10901 10901 10900 10899 10900 10902 10904 10904 10904 10903 10902 10901 10902 10902
10677 10682 10690 10705 10718 10725 10732 10737 10742 10748 10756 10762 10767 10772 10776 10782 10789 10794 10798 10801 10803 10805 10805 10807 10810 10814 10818 10823 10828 10830 10832 10835 10838 10842 10844 10846 10848 10850 10851 10852 10853 10854 10855 10856 10858 10859 10860 10861 10863 10865 10867 10870 10872 10873 10873 10874 10875 10877 10877 10877 10877 10878 10879 10880 10882 10883 10884 10885 10886 10886 10886 10889 10891 10892 10892 10893 10893 10893 10894 10896 10897 10897 10895 10895 10895 10896 10895
10666 10673 10683 10697 10708 10717 10724 10728 10732 10740 10747 10752 10759 10765 10770 10775 10782 10787 10791 10794 10796 10798 10799 10800 10803 10807 10813 10820 10822 10822 10824 10827 10830 10834 10838 10841 10843 10845 10846 10848 10849 10850 10851 10852 10854 10854 10855 10856 10858 10859 10860 10862 10865 10866 10867 10867 10869 10870 10870 10869 10869 10870 10872 10874 10876 10877 10877 10879 10880 10879 10879 10881 10882 10883 10883 10885 10885 10885 10886 10887 10888 10888 10888 10888 10889 10889 10888
10658 10665 10677 10690 10701 10711 10717 10719 10724 10732 10737 10742 10750 10757 10762 10769 10774 10779 10783 10786 10788 10791 10792 10794 10796 10801 10809 10815 10813 10813 10817 10821 10823 10827 10831 10835 10838 10840 10842 10843 10844 10845 10846 10847 10849 10850 10850 10851 10853 10854 10855 10856 10858 10859 10860 10861 10862 10863 10862 10860 10860 10863 10866 10869 10871 10871 10871 10871 10871 10871 10872 10872 10873 10874 10875 10876 10877 10878 10878 10877 10877 10878 10880 10881 10881 10881 10880
10652 10659 10670 10683 10692 10701 10707 10710 10715 10721 10727 10733 10740 10748 10757 10763 10766 10771 10775 10777 10780 10784 10785 10787 10790 10796 10802 10805 10803 10807 10813 10816 10818 10821 10825 10829 10832 10835 10837 10838 10839 10840 10841 10842 10843 10844 10845 10847 10848 10849 10849 10850 10851 10852 10853 10855 10856 10855 10853 10852 10855 10859 10861 10863 10864 10864 10864 10863 10863 10864 10864 10864 10865 10866 10867 10867 10868 10870 10870 10869 10869 10870 10872 10872 10872 10872 10872
10642 10648 10659 10672 10682 10691 10697 10700 10704 10710 10716 10724 10732 10742 10751 10755 10757 10762 10767 10769 10772 10776 10777 10780 10783 10788 10793 10795 10796 10802 10807 10810 10813 10816 10818 10822 10826 10829 10832 10833 10834 10836 10837 10837 10838 10838 10839 10841 10843 10844 10844 10844 10845 10846 10847 10848 10848 10847 10847 10848 10851 10853 10854 10855 10856 10856 10857 10857 10856 10856 10857 10857 10858 10859 10858 10858 10859 10861 10862 10861 10861 10862 10862 10863 10863 10863 10863
10630 10638 10649 10660 10671 10681 10687 10690 10694 10699 10706 10716 10727 10736 10741 10744 10748 10754 10758 10760 10764 10767 10769 10772 10775 10779 10784 10787 10790 10795 10800 10804 10807 10810 10813 10816 10818 10822 10825 10828 10829 10830 10831 10832 10833 10833 10834 10835 10836 10838 10838 10838 10839 10840 10841 10841 10841 10841 10842 10843 10844 10845 10846 10847 10848 10848 10849 10850 10850 10849 10849 10851 10852 10852 10851 10851 10852 10853 10854 10853 10853 10854 10853 10853 10853 10854 10854
10619 10627 10636 10648 10662 10674 10677 10677 10682 10690 10698 10710 10721 10727 10730 10735 10740 10744 10748 10751 10754 10757 10761 10763 10767 10772 10776 10780 10784 10789 10793 10797 10801 10804 10807 10810 10812 10815 10818 10821 10823 10824 10825 10827 10827 10828 10829 10829 10830 10831 10831 10832 10833 10834 10834 10835 10835 10836 10836 10836 10837 10838 10839 10840 10841 10841 10841 10843 10844 10843 10843 10844 10846 10846 10845 10845 10845 10847 10848 10847 10847 10847 10846 10845 10844 10845 10845
10604 10612 10625 10641 10655 10663 10664 10667 10675 10685 10693 10703 10711 10715 10720 10726 10729 10733 10739 10742 10744 10748 10752 10755 10759 10764 10769 10774 10778 10782 10787 10791 10794 10798 10801 10804 10806 10808 10811 10813 10816 10818 10819 10820 10821 10822 10823 10824 10824 10824 10824 10825 10825 10826 10827 10828 10829 10829 10829 10830 10831 10832 10832 10833 10834 10834 10835 10836 10837 10837 10836 10836 10839 10840 10839 10838 10839 10840 10841 10841 10840 10840 10839 10838 10837 10837 10836
10592 10605 10622 10636 10644 10651 10658 10665 10670 10676 10684 10692 10699 10704 10710 10716 10720 10724 10729 10732 10735 10739 10743 10747 10752 10757 10762 10767 10771 10776 10780 10784 10787 10790 10794 10796 10799 10801 10804 10806 10808 10810 10812 10813 10814 10814 10816 10818 10818 10819 10818 10818 10819 10819 10820 10821 10822 10823 10823 10824 10824 10824 10825 10826 10827 10828 10828 10830 10830 10830 10829 10829 10830 10832 10832 10832 10832 10832 10833 10834 10834 10833 10831 10831 10830 10829 10828
10586 10601 10616 10624 10630 10640 10651 10655 10655 10662 10672 10682 10688 10693 10699 10707 10712 10715 10718 10722 10726 10730 10733 10739 10745 10749 10754 10759 10764 10769 10773 10777 10780 10783 10786 10788 10791 10794 10796 10799 10801 10803 10804 10805 10806 10807 10808 10810 10811 10812 10813 10813 10813 10813 10814 10814 10815 10816 10817 10817 10818 10818 10818 10819 10820 10821 10822 10823 10823 10823 10823 10823 10823 10823 10824 10826 10826 10825 10825 10826 10826 10826 10825 10823 10822 10821 10820
10579 10594 10604 10609 10615 10628 10638 10640 10643 10651 10662 10670 10677 10683 10690 10697 10703 10706 10709 10713 10716 10720 10724 10730 10735 10741 10746 10751 10756 10761 10765 10768 10772 10775 10778 10780 10783 10786 10788 10791 10793 10795 10796 10797 10798 10799 10799 10800 10802 10804 10805 10806 10807 10807 10807 10808 10808 10809 10810 10811 10811 10811 10811 10811 10812 10813 10815 10815 10815 10815 10816 10817 10817 10817 10817 10818 10819 10819 10819 10818 10817 10818 10817 10816 10814 10812 10811
10570 10584 10592 10597 10605 10618 10627 10629 10632 10640 10650 10659 10666 10673 10681 10688 10693 10697 10701 10704 10707 10710 10715 10719 10725 10732 10737 10741 10747 10752 10756 10759 10763 10766 10769 10772 10775 10777 10780 10783 10784 10786 10788 10789 10790 10790 10790 10791 10793 10794 10796 10797 10798 10799 10800 10800 10801 10802 10803 10803 10803 10803 10804 10804 10805 10806 10807 10807 10808 10808 10809 10810 10811 10811 10811 10811 10812 10813 10813 10811 10810 10809 10809 10808 10807 10804 10802
10562 10575 10581 10585 10594 10605 10613 10617 10621 10630 10641 10648 10655 10664 10672 10678 10683 10687 10691 10695 10698 10701 10704 10708 10714 10721 10726 10731 10737 10742 10746 10750 10754 10757 10761 10764 10766 10769 10771 10774 10775 10777 10778 10779 10781 10782 10782 10783 10783 10784 10785 10786 10788 10789 10791 10792 10793 10794 10795 10795 10795 10796 10796 10797 10798 10799 10799 10800 10800 10801 10802 10803 10804 10804 10803 10803 10804 10805 10805 10804 10803 10802 10800 10799 10797 10795 10793
10553 10563 10566 10569 10580 10593 10601 10605 10611 10621 10631 10637 10645 10656 10664 10668 10671 10676 10682 10686 10690 10694 10697 10700 10704 10709 10715 10721 10726 10731 10736 10741 10745 10749 10752 10755 10758 10761 10763 10764 10766 10767 10769 10770 10772 10773 10774 10774 10774 10775 10776 10777 10779 10780 10782 10783 10785 10786 10786 10787 10787 10788 10788 10789 10790 10791 10792 10792 10793 10794 10794 10795 10795 10796 10795 10795 10796 10797 10797 10795 10795 10794 10793 10791 10789 10787 10786
10542 10546 10548 10556 10571 10584 10591 10596 10603 10614 10623 10630 10638 10648 10654 10657 10661 10666 10672 10677 10681 10685 10688 10692 10695 10699 10705 10711 10716 10721 10726 10731 10736 10740 10743 10746 10749 10752 10754 10755 10757 10758 10759 10761 10763 10764 10765 10765 10766 10767 10768 10769 10771 10772 10774 10775 10776 10777 10778 10779 10780 10780 10781 10782 10783 10783 10784 10784 10785 10785 10785 10786 10787 10787 10787 10787 10788 10790 10790 10789 10787 10786 10784 10783 10783 10782 10781
10527 10530 10536 10549 10563 10573 10580 10587 10597 10607 10616 10623 10630 10639 10646 10650 10652 10656 10661 10666 10671 10674 10677 10682 10686 10689 10694 10700 10706 10711 10717 10722 10727 10731 10735 10738 10741 10742 10744 10746 10747 10749 10750 10752 10753 10755 10756 10756 10756 10758 10759 10761 10762 10764 10765 10766 10768 10769 10770 10771 10772 10773 10773 10774 10775 10775 10775 10776 10776 10776 10777 10777 10778 10779 10780 10781 10782 10782 10782 10782 10780 10779 10777 10776 10777 10776 10775
10513 10518 10528 10540 10552 10562 10570 10578 10588 10598 10607 10614 10622 10630 10637 10641 10643 10645 10650 10655 10660 10664 10667 10672 10677 10681 10685 10690 10696 10702 10708 10714 10719 10723 10727 10729 10731 10733 10735 10736 10738 10740 10741 10743 10744 10745 10746 10746 10746 10747 10749 10750 10752 10754 10756 10757 10759 10760 10762 10763 10764 10764 10764 10765 10766 10766 10767 10767 10768 10768 10769 10769 10770 10770 10772 10774 10775 10775 10775 10774 10772 10770 10769 10769 10770 10769 10768
10502 10509 10521 10533 10544 10554 10562 10569 10579 10589 10597 10605 10612 10617 10623 10630 10634 10635 10638 10644 10650 10656 10659 10663 10668 10674 10678 10683 10688 10693 10700 10705 10710 10714 10717 10719 10721 10724 10726 10727 10729 10730 10731 10732 10733 10734 10735 10736 10736 10737 10738 10739 10741 10743 10745 10747 10749 10750 10752 10753 10754 10755 10756 10756 10757 10757 10758 10758 10759 10759 10760 10760 10761 10762 10763 10765 10766 10767 10767 10765 10763 10762 10762 10763 10763 10761 10760
10491 10500 10513 10526 10536 10545 10553 10561 10570 10578 10586 10593 10598 10602 10610 10620 10625 10626 10629 10634 10640 10646 10650 10653 10658 10665 10671 10676 10681 10686 10692 10697 10701 10704 10706 10709 10712 10714 10716 10718 10720 10721 10721 10721 10722 10724 10725 10726 10727 10728 10728 10729 10730 10732 10733 10735 10737 10739 10740 10741 10743 10745 10746 10746 10747 10747 10748 10749 10750 10750 10751 10751 10752 10753 10754 10755 10756 10758 10758 10757 10756 10756 10755 10756 10756 10755 10754
10481 10492 10505 10518 10526 10534 10542 10550 10558 10565 10572 10580 10586 10592 10602 10611 10614 10615 10618 10622 10628 10634 10640 10644 10649 10657 10663 10669 10674 10679 10684 10688 10692 10694 10697 10700 10703 10706 10708 10709 10710 10711 10711 10711 10711 10713 10715 10716 10717 10718 10718 10719 10720 10722 10723 10725 10726 10727 10728 10729 10731 10733 10734 10734 10735 10736 10738 10739 10739 10740 10741 10741 10742 10743 10744 10745 10747 10749 10749 10749 10749 10749 10749 10749 10749 10748 10747
10472 10484 10497 10508 10515 10522 10532 10540 10545 10551 10559 10569 10576 10584 10592 10599 10602 10604 10608 10611 10616 10623 10629 10634 10640 10648 10654 10660 10666 10671 10676 10679 10682 10685 10688 10691 10694 10697 10699 10700 10700 10699 10700 10701 10702 10703 10704 10705 10706 10707 10708 10709 10711 10713 10714 10715 10716 10717 10718 10719 10720 10721 10722 10723 10724 10725 10727 10728 10729 10729 10730 10730 10731 10732 10734 10736 10738 10740 10741 10740 10741 10741 10741 10741 10742 10741 10740
10463 10474 10485 10495 10504 10514 10523 10529 10532 10539 10549 10558 10565 10573 10580 10587 10593 10596 10599 10602 10608 10613 10619 10625 10631 10639 10646 10652 10657 10662 10666 10669 10672 10675 10679 10682 10685 10687 10689 10690 10689 10688 10689 10691 10692 10693 10694 10695 10697 10698 10699 10701 10703 10704 10705 10707 10707 10709 10710 10710 10710 10710 10711 10712 10714 10715 10717 10718 10719 10719 10720 10719 10720 10722 10725 10727 10730 10732 10732 10732 10732 10732 10733 10733 10734 10735 10736
10453 10462 10473 10483 10493 10503 10510 10513 10516 10524 10534 10543 10552 10561 10570 10577 10583 10588 10591 10595 10600 10605 10610 10617 10623 10630 10637 10643 10648 10652 10656 10659 10662 10666 10670 10672 10674 10676 10679 10679 10679 10679 10680 10681 10682 10682 10684 10686 10687 10689 10691 10693 10694 10695 10696 10698 10700 10701 10702 10702 10702 10703 10704 10704 10705 10706 10707 10708 10709 10709 10709 10709 10710 10712 10715 10718 10721 10723 10723 10723 10723 10724 10725 10727 10728 10729 10731
10442 10451 10460 10470 10478 10485 10491 10495 10500 10509 10520 10531 10541 10550 10558 10566 10574 10581 10585 10588 10593 10598 10603 10608 10614 10621 10627 10633 10639 10643 10646 10650 10653 10657 10659 10662 10664 10667 10669 10670 10669 10669 10669 10670 10670 10672 10674 10676 10678 10680 10682 10683 10685 10686 10688 10690 10692 10694 10695 10695 10695 10696 10697 10697 10698 10698 10698 10699 10699 10699 10699 10699 10701 10703 10705 10708 10712 10713 10714 10714 10715 10716 10719 10721 10723 10724 10725
10433 10441 10450 10457 10464 10471 10478 10484 10490 10500 10513 10523 10532 10541 10549 10558 10567 10574 10578 10582 10587 10592 10596 10600 10606 10613 10619 10624 10629 10633 10637 10641 10645 10648 10650 10652 10655 10658 10660 10660 10659 10658 10659 10660 10661 10662 10665 10667 10669 10671 10672 10673 10675 10677 10679 10681 10684 10686 10687 10688 10688 10688 10689 10689 10689 10688 10689 10690 10691 10690 10690 10690 10692 10694 10697 10699 10703 10704 10705 10705 10707 10710 10712 10715 10716 10718 10718
10427 10434 10441 10449 10457 10465 10471 10477 10483 10493 10505 10514 10523 10532 10542 10551 10561 10567 10571 10574 10580 10584 10588 10592 10599 10606 10610 10613 10618 10623 10627 10630 10634 10637 10639 10642 10646 10648 10648 10648 10647 10648 10650 10651 10652 10653 10655 10657 10660 10661 10662 10663 10665 10666 10669 10672 10675 10678 10679 10680 10680 10680 10681 10681 10680 10679 10680 10682 10683 10683 10682 10682 10683 10686 10689 10691 10694 10696 10696 10697 10699 10702 10705 10707 10709 10711 10712
10424 10429 10436 10444 10452 10459 10466 10473 10481 10490 10499 10507 10515 10524 10533 10543 10552 10558 10561 10564 10569 10574 10579 10584 10590 10596 10599 10602 10606 10611 10616 10620 10623 10626 10628 10631 10635 10637 10636 10636 10637 10640 10642 10643 10643 10644 10645 10647 10648 10650 10651 10652 10654 10657 10659 10662 10665 10668 10670 10671 10671 10671 10672 10672 10672 10672 10673 10674 10675 10675 10674 10673 10674 10677 10680 10683 10685 10687 10688 10688 10690 10694 10698 10700 10702 10705 10707
10422 10427 10433 10440 10446 10453 10461 10469 10477 10484 10491 10498 10506 10516 10526 10534 10541 10546 10549 10554 10560 10565 10569 10573 10578 10583 10586 10590 10595 10600 10605 10610 10614 10617 10618 10622 10626 10628 10628 10628 10630 10632 10634 10634 10635 10635 10635 10636 10637 10638 10640 10642 10644 10647 10649 10652 10654 10657 10659 10660 10661 10662 10663 10664 10664 10665 10666 10667 10667 10666 10664 10663 10664 10666 10670 10674 10676 10678 10679 10680 10681 10685 10690 10694 10696 10698 10700
10421 10425 10430 10435 10441 10448 10456 10463 10470 10477 10484 10492 10501 10511 10521 10529 10533 10537 10540 10545 10550 10555 10558 10561 10565 10570 10574 10578 10584 10590 10595 10600 10605 10609 10611 10614 10617 10619 10620 10621 10622 10624 10625 10625 10624 10624 10625 10626 10627 10628 10629 10631 10634 10636 10639 10642 10644 10647 10649 10650 10651 10652 10653 10655 10655 10656 10657 10658 10658 10657 10655 10654 10654 10656 10660 10663 10666 10669 10671 10672 10673 10676 10681 10686 10689 10690 10692
10422 10425 10430 10434 10440 10445 10451 10457 10463 10470 10477 10486 10495 10504 10512 10518 10523 10528 10531 10534 10538 10543 10546 10548 10552 10558 10563 10567 10573 10580 10586 10592 10597 10601 10604 10606 10608 10611 10612 10612 10613 10614 10615 10614 10613 10614 10615 10617 10618 10619 10619 10621 10624 10627 10629 10631 10634 10637 10639 10640 10641 10642 10643 10644 10646 10647 10648 10649 10649 10649 10647 10647 10647 10648 10650 10653 10656 10659 10661 10663 10665 10667 10671 10676 10679 10681 10683
10422 10425 10429 10434 10438 10442 10447 10452 10457 10463 10470 10477 10485 10492 10498 10503 10508 10512 10516 10520 10524 10529 10534 10537 10542 10548 10552 10556 10561 10569 10577 10582 10586 10591 10595 10597 10599 10601 10602 10603 10603 10604 10604 10604 10605 10606 10606 10606 10609 10610 10611 10612 10615 10618 10620 10622 10624 10626 10628 10630 10631 10632 10633 10634 10635 10637 10638 10639 10640 10640 10639 10639 10639 10640 10641 10643 10645 10648 10650 10653 10656 10658 10661 10665 10669 10671 10673
10424 10426 10429 10432 10437 10440 10443 10447 10452 10458 10464 10469 10474 10479 10485 10489 10493 10497 10502 10508 10513 10520 10526 10530 10533 10537 10541 10545 10551 10560 10566 10572 10577 10582 10586 10588 10590 10591 10592 10593 10594 10594 10594 10596 10597 10597 10596 10596 10598 10601 10602 10603 10605 10608 10611 10613 10615 10616 10617 10618 10620 10621 10622 10624 10625 10627 10628 10630 10631 10631 10631 10631 10631 10633 10633 10634 10635 10637 10640 10643 10645 10647 10650 10654 10657 10659 10661
10427 10429 10430 10433 10438 10441 10442 10445 10450 10455 10459 10462 10467 10472 10478 10482 10485 10490 10496 10502 10508 10514 10518 10521 10524 10528 10533 10537 10543 10551 10558 10563 10569 10573 10576 10578 10580 10581 10582 10584 10584 10584 10585 10587 10589 10587 10586 10586 10588 10591 10593 10593 10595 10597 10600 10602 10605 10606 10607 10608 10609 10610 10611 10613 10614 10616 10617 10619 10620 10621 10622 10622 10622 10624 10625 10625 10626 10628 10630 10632 10634 10636 10639 10642 10644 10648 10652
10431 10432 10433 10435 10438 10440 10442 10445 10450 10453 10456 10458 10463 10468 10472 10476 10480 10486 10492 10498 10502 10507 10510 10512 10515 10521 10526 10529 10534 10541 10548 10554 10559 10563 10566 10568 10569 10571 10573 10575 10575 10575 10577 10579 10579 10577 10576 10576 10578 10580 10582 10584 10585 10586 10588 10590 10593 10595 10596 10597 10598 10598 10599 10601 10602 10604 10606 10608 10609 10611 10612 10612 10613 10614 10616 10617 10618 10620 10622 10623 10624 10626 10628 10630 10632 10636 10641
10433 10435 10437 10438 10440 10441 10443 10446 10449 10451 10452 10455 10459 10463 10466 10470 10474 10480 10487 10492 10496 10500 10503 10504 10508 10513 10518 10521 10525 10531 10538 10543 10547 10551 10554 10557 10560 10562 10564 10565 10565 10565 10567 10569 10569 10567 10566 10566 10568 10569 10572 10574 10576 10577 10578 10579 10581 10582 10583 10584 10585 10586 10587 10589 10591 10593 10595 10596 10598 10600 10601 10602 10603 10604 10605 10608 10610 10612 10613 10613 10615 10617 10618 10619 10621 10624 10627
10435 10437 10439 10441 10442 10444 10447 10449 10450 10451 10453 10456 10459 10461 10464 10468 10473 10478 10483 10487 10490 10492 10495 10499 10502 10505 10510 10514 10517 10521 10526 10532 10537 10540 10544 10548 10550 10551 10551 10553 10554 10556 10558 10559 10558 10557 10556 10557 10559 10560 10562 10564 10566 10567 10568 10569 10570 10570 10571 10572 10573 10575 10577 10579 10580 10582 10584 10585 10586 10588 10590 10592 10593 10594 10595 10599 10602 10603 10603 10604 10606 10607 10608 10609 10610 10611 10613
10437 10438 10440 10441 10443 10445 10448 10450 10451 10453 10455 10458 10460 10461 10464 10467 10472 10476 10480 10483 10484 10485 10488 10492 10495 10497 10502 10506 10509 10511 10516 10521 10526 10530 10533 10536 10537 10539 10540 10542 10544 10546 10548 10548 10548 10547 10548 10549 10551 10552 10553 10555 10557 10558 10559 10559 10560 10560 10561 10563 10564 10565 10567 10569 10570 10572 10574 10575 10576 10578 10579 10581 10583 10584 10586 10589 10592 10593 10593 10594 10596 10597 10598 10600 10601 10600 10601
10438 10439 10440 10441 10442 10444 10446 10448 10450 10451 10453 10455 10457 10459 10461 10464 10467 10470 10473 10475 10477 10479 10482 10485 10487 10490 10495 10500 10503 10505 10508 10511 10515 10519 10522 10524 10526 10528 10530 10531 10532 10535 10537 10538 10538 10538 10539 10541 10543 10544 10545 10547 10548 10549 10550 10551 10551 10552 10553 10554 10555 10556 10558 10559 10561 10563 10564 10565 10566 10568 10569 10571 10573 10575 10576 10578 10580 10582 10583 10584 10585 10586 10588 10590 10591 10590 10590
10437 10438 10439 10440 10441 10443 10444 10445 10446 10448 10449 10451 10452 10454 10456 10458 10460 10463 10465 10467 10470 10473 10476 10478 10481 10485 10489 10492 10495 10498 10499 10500 10503 10508 10512 10515 10517 10518 10519 10521 10522 10525 10528 10529 10529 10529 10530 10533 10535 10536 10537 10539 10540 10541 10542 10543 10543 10543 10544 10545 10547 10548 10549 10550 10551 10553 10555 10556 10557 10558 10560 10561 10562 10564 10566 10567 10569 10571 10573 10573 10573 10574 10575 10577 10579 10579 10580
10435 10436 10437 10438 10439 10440 10440 10441 10442 10443 10444 10446 10448 10450 10451 10453 10454 10456 10458 10461 10464 10467 10469 10471 10474 10478 10480 10482 10485 10488 10490 10491 10495 10499 10502 10505 10507 10509 10510 10512 10513 10515 10517 10519 10520 10520 10521 10523 10526 10528 10530 10531 10532 10533 10534 10535 10535 10536 10536 10537 10538 10539 10540 10541 10542 10543 10545 10547 10548 10549 10550 10551 10553 10554 10555 10556 10558 10559 10561 10562 10562 10563 10563 10565 10566 10567 10569
10434 10434 10435 10435 10436 10436 10437 10438 10438 10438 10439 10440 10442 10444 10445 10447 10449 10450 10452 10454 10457 10459 10461 10463 10466 10468 10470 10473 10477 10481 10484 10487 10490 10492 10494 10496 10498 10499 10500 10501 10502 10503 10505 10507 10509 10510 10511 10513 10517 10519 10521 10522 10523 10524 10524 10525 10526 10527 10528 10528 10529 10530 10531 10532 10533 10534 10535 10536 10538 10539 10540 10542 10543 10544 10545 10546 10547 10548 10549 10550 10551 10551 10552 10552 10553 10554 10556
10432 10432 10432 10433 10433 10433 10434 10434 10435 10435 10435 10436 10437 10438 10439 10442 10444 10445 10447 10448 10450 10452 10454 10457 10459 10462 10465 10469 10473 10477 10479 10481 10482 10482 10483 10484 10485 10486 10487 10489 10491 10492 10493 10495 10497 10499 10501 10504 10507 10509 10511 10512 10513 10514 10514 10515 10516 10517 10518 10519 10520 10521 10522 10523 10524 10525 10525 10526 10527 10529 10530 10532 10533 10534 10534 10535 10536 10537 10538 10539 10539 10540 10540 10540 10541 10542 10543
10428 10429 10429 10430 10430 10430 10431 10431 10431 10431 10432 10432 10433 10434 10435 10437 10439 10441 10442 10444 10445 10447 10449 10452 10454 10458 10461 10465 10468 10470 10471 10471 10471 10471 10472 10473 10474 10475 10477 10479 10481 10483 10484 10486 10488 10491 10493 10495 10497 10498 10500 10501 10502 10503 10504 10505 10505 10506 10507 10508 10509 10510 10511 10513 10513 10515 10516 10516 10517 10518 10519 10521 10522 10523 10524 10524 10525 10526 10527 10527 10528 10528 10528 10528 10529 10529 10530
10424 10425 10425 10426 10427 10427 10427 10428 10428 10428 10428 10429 10430 10430 10431 10432 10434 10435 10437 10439 10441 10442 10444 10447 10449 10451 10454 10457 10459 10460 10461 10461 10461 10463 10464 10465 10466 10468 10469 10471 10472 10474 10476 10478 10479 10481 10483 10485 10486 10488 10489 10490 10491 10492 10493 10493 10494 10495 10496 10497 10498 10499 10500 10502 10502 10503 10505 10506 10507 10507 10508 10509 10510 10511 10512 10513 10514 10514 10515 10516 10516 10517 10517 10517 10517 10517 10517